Regional Weather Roundup
Issued by NWS Sterling, VA

Home | Current Version | Previous Version | Text Only | Print | Product List | Glossary Off
Versions: 1 2 3 4 5 6 7 8 9 10 11 12 13 14 15 16 17 18 19 20 21 22 23 24 25 26 27 28 29 30 31 32 33 34 35 36 37 38 39 40 41 42 43 44 45 46 47 48 49 50

000
ASUS41 KLWX 251710
RWRLWX

REGIONAL WEATHER ROUNDUP
NATIONAL WEATHER SERVICE BALTIMORE MD/WASHINGTON DC
100 PM EDT SUN SEP 25 2016

Note: "FAIR" indicates few or no clouds below 12,000 feet
with no significant weather and/or obstructions to visibility.
 TC=TEMPERATURE CELSIUS

 * =Non NWS site. Station does not report precipitation (e.g. rain,
    snow, etc.), thunder, or fog.

DCZ001-MDZ009-015-VAZ040>042-051-053>054-251800-
WASHINGTON METRO

CITY           SKY/WX    TMP DP  RH WIND       PRES   REMARKS
WASHINGTON NAT MOSUNNY   72  45  37 CALM      30.21F
DULLES         PTSUNNY   69  43  38 NE6       30.21F
ANDREWS AFB    SUNNY     69  47  46 N2        30.19F
FT BELVOIR     CLOUDY    69  47  44 NW2       30.20F
QUANTICO         N/A     68  51  54 CALM      30.22F
COLLEGE PARK*  MOSUNNY   68  41  37 NW6       30.20F
LEESBURG*      CLOUDY    70  46  43 CALM      30.22F
MANASSAS*      CLOUDY    66  48  52 SE3       30.22F
GAITHERSBURG*  MOSUNNY   68  45  42 E3        30.24F

$$

MDZ006>007-011-014-251800-
BALTIMORE METRO

CITY           SKY/WX    TMP DP  RH WIND       PRES   REMARKS
BWI AIRPORT    MOSUNNY   69  41  36 E7        30.21F
MD SCIENCE CTR   N/A     68  40  35 MISG      30.21F
MARTIN STATE   SUNNY     70  46  43 E7        30.22F
ANNAPOLIS      SUNNY     68  45  43 E5        30.21F
FORT MEADE*    SUNNY     68  41  37 CALM      30.23F

$$

MDZ012-015-019>023-251800-
MARYLAND EASTERN SHORE

CITY           SKY/WX    TMP DP  RH WIND       PRES   REMARKS
OCEAN CITY     MOSUNNY   73  53  49 NE8       30.19S
SALISBURY      SUNNY     71  50  47 MISG      30.19S
BAY BRIDGE AP* SUNNY     68  45  42 MISG      30.21F
CAMBRIDGE*     SUNNY     68  48  49 W5        30.20F
EASTON*        SUNNY     72  41  33 N6        30.24F

$$

MDZ017>025-251800-
SOUTHERN MARYLAND

CITY           SKY/WX    TMP DP  RH WIND       PRES   REMARKS
PATUXENT RIVER MOSUNNY   71  46  40 N6        30.20F
ST INIGOES     SUNNY     71  49  45 E7        30.20F
LEONARDTOWN*   CLOUDY    68  46  45 N5        30.22S

$$

MDZ003>005-251800-
NORTH CENTRAL MARYLAND

CITY           SKY/WX    TMP DP  RH WIND       PRES   REMARKS
FREDERICK*     MOSUNNY   72  45  37 CALM      30.23F
HAGERSTOWN APT SUNNY     69  42  37 CALM      30.20F

$$

MDZ501>502-251800-
WESTERN MARYLAND

CITY           SKY/WX    TMP DP  RH WIND       PRES   REMARKS
OAKLAND*       SUNNY     64  46  52 CALM      30.21F
CUMBERLAND*    MOSUNNY   68  45  42 SE3       30.24F

$$

VAZ025>031-251800-
SHENANDOAH VALLEY

CITY           SKY/WX    TMP DP  RH WIND       PRES   REMARKS
WINCHESTER*    CLOUDY    66  45  45 CALM      30.21F
FRONT ROYAL*   CLOUDY    63  46  55 E3        30.21S
LURAY*         CLOUDY    63  52  67 CALM      30.21F
NEW MARKET*    CLOUDY   N/A N/A N/A N3        30.20F
STAUNTON*      CLOUDY    60  58  94 E3        30.23S
WAYNESBORO*    CLOUDY    64  57  78 E8        30.21S

$$

WVZ021-048>050-054>055-251800-
EASTERN WEST VIRGINIA PANHANDLE

CITY           SKY/WX    TMP DP  RH WIND       PRES   REMARKS
MARTINSBURG    PTSUNNY   70  46  42 VRB6      30.20F
PETERSBURG*    MOSUNNY   72  54  53 N5        30.17F

$$

VAZ036>039-050-251800-
CENTRAL FOOTHILLS

CITY           SKY/WX    TMP DP  RH WIND       PRES   REMARKS
CHARLOTTESVILL CLOUDY    61  54  77 NE7       30.23R
CULPEPER*      CLOUDY    64  50  59 CALM      30.23F
ORANGE*          N/A     63  52  67 CALM      30.24F
GORDONSVILLE*  NOT AVBL
WARRENTON*     CLOUDY    65  42  43 CALM      30.22F

$$

VAZ055>057-251800-
NORTH AND CENTRAL PIEDMONT

CITY           SKY/WX    TMP DP  RH WIND       PRES   REMARKS
FREDERICKSBRG* PTSUNNY   67  54  62 CALM      30.20F
STAFFORD*      CLOUDY    65  51  60 CALM      30.25F

$$

NCZ024-NYZ072-PAZ021-071-VAZ022-071-251800-
OTHER REGIONAL OBSERVATIONS

CITY           SKY/WX    TMP DP  RH WIND       PRES   REMARKS
NEW YORK CITY  SUNNY     66  35  31 VRB5      30.22F
PHILADELPHIA   MOSUNNY   70  41  34 N7        30.20F
PITTSBURGH     PTSUNNY   69  49  48 VRB3      30.17F
ROANOKE        CLOUDY    69  64  84 SE9       30.21S
RICHMOND       PTSUNNY   72  57  59 VRB3      30.19F
RALEIGH        CLOUDY    73  66  78 SE8       30.16S

$$

ANZ530>537-251800-
MARINE OBSERVATIONS

STATION/POSITION TIME  TEMP    WIND        PRES
                       AIR SEA DIR/SP/G
                 (UTC) (F)     (DEG/KT/KT) (MB)
THOMAS PT LIGHT  1700   64 75  360/  5/  6 1024.4F
BALT KEY BRIDGE  1648   65      30/  4/  5 1023.2F
COVE POINT       1648   64      20/  7/ 10 1023.5F
LEWISETTA        1648   68 74   60/  3/  5 1022.5F
SOLOMONS ISLAND  1648   67 77   10/  4/  6   N/A
PINEY POINT      1648          300/  2/  3   N/A

$$




USA.gov is the U.S. government's official web portal to all federal, state and local government web resources and services.